Location: Dammartin
(48.9032°N, 1.6195°E)
Time: 10:59:18
(UTC+00:00)

Genesis I - Pass Details

Date: 03 February 2023
Orbit: 466 x 515 km, 64.5° (Epoch: 29 March)

Event Time Altitude Azimuth Distance (km) Brightness Sun altitude
Rises 18:45:33 0° 208° (SSW) 2,642 7.3 -18.5°
Reaches altitude 10° 18:47:43 10° 205° (SSW) 1,761 6.3 -18.9°
Maximum altitude 18:51:38 61° 125° (SE) 601 3.2 -19.5°
Enters shadow 18:52:03 57° 93° (E) 627 3.2 -19.6°
